Location: Kra?nica
(53.4833°N, 14.6167°E)
Time: 16:40:22
(UTC+00:00)

CZ-2D R/B - Pass Details

Date: 23 May 2024
Orbit: 791 x 843 km, 98.8° (Epoch: 13 June)

Event Time Altitude Azimuth Distance (km) Brightness Sun altitude
Rises 01:48:53 0° 14° (NNE) 3,416 6.7 -7.3°
Reaches altitude 10° 01:51:17 10° 10° (N) 2,476 5.7 -7.0°
Maximum altitude 01:56:40 59° 293° (WNW) 972 2.5 -6.5°
Drops below altitude 10° 02:01:59 10° 215° (SW) 2,443 3.9 -6.0°
Enters shadow 02:02:42 - 214° (SW) 2,724 4.2 -5.9°
